Location: Drawno
(53.2148°N, 15.7493°E)
Time: 22:19:36
(UTC+01:00)

ISS - Visible Passes

Search period start: 19 January 2018 00:00
Search period end: 29 January 2018 00:00
Orbit: 402 x 407 km, 51.6° (Epoch: 20 January)

Date Brightness Start Highest point End Pass type
(mag) Time Alt. Az. Time Alt. Az. Time Alt. Az.
26 Jan -1.1 18:55:46 10° SSW 18:56:11 12° S 18:56:11 12° S visible
27 Jan -1.5 18:04:34 10° SSE 18:05:56 12° SE 18:06:11 12° SE visible
27 Jan -0.6 19:38:41 10° SW 19:38:51 11° SW 19:38:51 11° SW visible
28 Jan -2.3 18:46:37 10° SW 18:48:46 26° S 18:48:46 26° S visible
